Karlovy Vary, Czech Republic

11:03 AM CEST on September 26, 2016 (GMT +0200)
Karlovy Vary

Weather History for LKKV - November, 2012

Change the Weather History Date:

Thursday, November 29, 2012

  Actual Average (EDQM) Record (EDQM)
Temperature  
Mean Temperature 34 °F -  
Max Temperature 39 °F 36 °F 50 °F (2000)
Min Temperature 30 °F 30 °F 19 °F (2007)
Degree Days  
Heating Degree Days 30    
Moisture  
Dew Point 31 °F    
Average Humidity 97    
Maximum Humidity 100    
Minimum Humidity 93    
Precipitation  
Precipitation 0.00 in - - ()
Sea Level Pressure  
Sea Level Pressure 29.29 in    
Wind  
Wind Speed 8 mph ()    
Max Wind Speed 13 mph    
Max Gust Speed 21 mph    
Visibility 3.1 miles    
Events Fog , Rain , Snow    
Averages and records for this station are not official NWS values.
T = Trace of Precipitation, MM = Missing Value Source: Averaged Metar Reports

Daily Weather History Graph

Daily Weather History Graph

Search for Another Location

Airport or City:

Trip Planner

Search our weather history database for the weather conditions in past years. The results will help you decide how hot, cold, wet, or windy it might be!

Date:

Astronomy

Nov. 29, 2012 Rise Set
Actual Time 7:43 AM CET 4:09 PM CET
Civil Twilight 7:06 AM CET 4:47 PM CET
Nautical Twilight 6:25 AM CET 5:27 PM CET
Astronomical Twilight 5:46 AM CET 6:06 PM CET
Moon 4:57 PM CET (11/29) 8:17 AM CET (11/29)
Length of Visible Light 9h 40m
Length of Day
8h 26m
Full, 99% of the Moon is Illuminated
Nov 29
Full
Dec 6
Last Quarter
Dec 13
New
Dec 20
First Quarter
Dec 28
Full

Hourly Weather History & Observations

Time (CET) Temp. Windchill Dew Point Humidity Pressure Visibility Wind Dir Wind Speed Gust Speed Precip Events Conditions
12:00 AM 39.2 °F 32.5 °F 37.4 °F 93% 29.36 in 6.2 mi North 10.4 mph - N/A Rain Light Rain
1:00 AM 37.4 °F 31.4 °F 35.6 °F 93% 29.33 in 6.2 mi North 8.1 mph - N/A Rain Light Rain
2:00 AM 37.4 °F 33.8 °F 35.6 °F 93% 29.30 in 6.2 mi North 4.6 mph - N/A Rain Light Rain
3:00 AM 35.6 °F - 33.8 °F 93% 29.27 in 6.2 mi Variable 2.3 mph - N/A Rain Light Rain
4:00 AM 33.8 °F 27.7 °F 32.0 °F 93% 29.24 in 4.3 mi North 6.9 mph - N/A Rain Light Rain
4:14 AM 33.8 °F 27.7 °F 32.0 °F 93% 29.24 in 4.3 mi North 6.9 mph - N/A Rain , Snow Light Rain
5:00 AM 33.8 °F 26.4 °F 32.0 °F 93% 29.24 in 4.3 mi North 9.2 mph - N/A Rain Rain
6:00 AM 33.8 °F 25.8 °F 32.0 °F 93% 29.21 in 4.3 mi North 10.4 mph - N/A Rain Rain
6:18 AM 33.8 °F 25.8 °F 32.0 °F 93% 29.21 in 3.1 mi North 10.4 mph - N/A Snow Light Snow
7:00 AM 32.0 °F 23.6 °F 32.0 °F 100% 29.21 in 1.0 mi North 10.4 mph - N/A Snow Snow
7:30 AM 32.0 °F 24.2 °F 32.0 °F 100% 29.21 in 0.6 mi North 9.2 mph 20.7 mph N/A Snow Snow
8:00 AM 32.0 °F 24.2 °F 30.2 °F 93% 29.21 in 0.6 mi North 9.2 mph - N/A Snow Snow
8:10 AM 32.0 °F 23.6 °F 32.0 °F 100% 29.21 in 0.5 mi North 10.4 mph - N/A Fog , Snow Snow
8:30 AM 32.0 °F 23.6 °F 32.0 °F 100% 29.21 in 0.6 mi North 10.4 mph - N/A Fog , Snow Snow
9:00 AM 32.0 °F 24.8 °F 32.0 °F 100% 29.21 in 0.4 mi North 8.1 mph - N/A Fog , Snow Snow
9:30 AM 32.0 °F 24.2 °F 32.0 °F 100% 29.21 in 0.4 mi North 9.2 mph - N/A Fog , Snow Snow
10:00 AM 32.0 °F 24.8 °F 32.0 °F 100% 29.21 in 0.4 mi NNW 8.1 mph - N/A Fog , Snow Snow
10:30 AM 32.0 °F 24.2 °F 32.0 °F 100% 29.21 in 0.6 mi North 9.2 mph - N/A Snow Light Snow
11:00 AM 32.0 °F 24.8 °F 32.0 °F 100% 29.21 in 0.9 mi NNW 8.1 mph - N/A Snow Light Snow
11:30 AM 32.0 °F 24.8 °F 32.0 °F 100% 29.21 in 1.9 mi NW 8.1 mph - N/A Snow Light Snow
11:40 AM 32.0 °F 24.2 °F 32.0 °F 100% 29.21 in 3.1 mi WNW 9.2 mph - N/A Snow Light Snow
12:00 PM 32.0 °F 24.2 °F 32.0 °F 100% 29.21 in 3.1 mi NW 9.2 mph - N/A Snow Light Snow
12:30 PM 32.0 °F 23.0 °F 32.0 °F 100% 29.21 in 3.1 mi NW 11.5 mph - N/A Snow Light Snow
1:00 PM 32.0 °F 24.2 °F 32.0 °F 100% 29.24 in 6.2 mi NW 9.2 mph - N/A Snow Light Snow
1:30 PM 32.0 °F 24.8 °F 32.0 °F 100% 29.24 in 3.1 mi NW 8.1 mph - N/A Snow Light Snow
2:00 PM 32.0 °F 23.6 °F 32.0 °F 100% 29.27 in 1.9 mi WNW 10.4 mph - N/A Snow Light Snow
2:30 PM 32.0 °F 22.5 °F 30.2 °F 93% 29.27 in 0.9 mi West 12.7 mph - N/A Snow Light Snow
3:00 PM 32.0 °F 22.5 °F 30.2 °F 93% 29.27 in 0.9 mi West 12.7 mph - N/A Snow Light Snow
3:30 PM 30.2 °F 20.2 °F 30.2 °F 100% 29.30 in 0.9 mi West 12.7 mph - N/A Snow Light Snow
4:00 PM 30.2 °F 20.2 °F 30.2 °F 100% 29.33 in 0.9 mi West 12.7 mph - N/A Snow Light Snow
4:30 PM 30.2 °F 20.8 °F 30.2 °F 100% 29.33 in 0.9 mi West 11.5 mph - N/A Snow Light Snow
5:00 PM 30.2 °F 20.2 °F 30.2 °F 100% 29.36 in 0.9 mi West 12.7 mph - N/A Snow Light Snow
5:30 PM 30.2 °F 20.8 °F 30.2 °F 100% 29.36 in 1.9 mi West 11.5 mph - N/A Snow Light Snow
5:44 PM 30.2 °F 20.8 °F 30.2 °F 100% 29.36 in 3.1 mi West 11.5 mph - N/A Snow Light Snow
6:00 PM 30.2 °F 21.3 °F 30.2 °F 100% 29.36 in 4.3 mi West 10.4 mph - N/A Snow Light Snow
6:30 PM 30.2 °F 21.3 °F 30.2 °F 100% 29.39 in 6.2 mi West 10.4 mph - N/A Snow Light Snow
7:00 PM 30.2 °F 20.2 °F 30.2 °F 100% 29.39 in 6.2 mi West 12.7 mph - N/A Snow Light Snow
7:30 PM 30.2 °F 20.8 °F 30.2 °F 100% 29.42 in 6.2 mi WSW 11.5 mph - N/A Snow Light Snow
8:00 PM 30.2 °F 21.3 °F 28.4 °F 93% 29.42 in 6.2 mi WSW 10.4 mph - N/A Snow Light Snow
9:00 PM 30.2 °F 21.3 °F 28.4 °F 93% 29.44 in 6.2 mi West 10.4 mph - N/A   Mostly Cloudy
10:00 PM 30.2 °F 20.8 °F 28.4 °F 93% 29.47 in 6.2 mi WSW 11.5 mph - N/A   Mostly Cloudy
11:00 PM 30.2 °F 20.8 °F 28.4 °F 93% 29.47 in 6.2 mi West 11.5 mph - N/A   Mostly Cloudy